TimeCST,TemperatureF,Dew PointF,Humidity,Sea Level PressureIn,VisibilityMPH,Wind Direction,Wind SpeedMPH,Gust SpeedMPH,PrecipitationIn,Events,Conditions,WindDirDegrees,DateUTC
12:54 AM,24.1,19.0,81,30.42,10.0,Calm,Calm,-,N/A,,Clear,0,2013-01-04 06:54:00
1:54 AM,21.9,16.0,78,30.43,9.0,Calm,Calm,-,N/A,,Clear,0,2013-01-04 07:54:00
2:54 AM,21.0,17.1,85,30.43,7.0,SSW,4.6,-,N/A,,Clear,210,2013-01-04 08:54:00
3:54 AM,21.9,18.0,85,30.41,7.0,SSW,4.6,-,N/A,,Clear,210,2013-01-04 09:54:00
4:54 AM,21.9,18.0,85,30.40,7.0,SSW,4.6,-,N/A,,Clear,210,2013-01-04 10:54:00
5:54 AM,23.0,18.0,81,30.40,6.0,SW,4.6,-,N/A,,Haze,220,2013-01-04 11:54:00
6:54 AM,21.9,18.0,85,30.40,6.0,SSW,3.5,-,N/A,,Clear,210,2013-01-04 12:54:00
7:54 AM,21.9,18.0,85,30.39,5.0,SSW,5.8,-,N/A,,Clear,210,2013-01-04 13:54:00
8:54 AM,27.0,21.0,78,30.39,7.0,SSW,6.9,-,N/A,,Clear,210,2013-01-04 14:54:00
9:54 AM,32.0,21.9,66,30.40,10.0,SW,12.7,21.9,N/A,,Clear,220,2013-01-04 15:54:00
10:54 AM,36.0,21.9,57,30.39,10.0,SW,12.7,-,N/A,,Clear,230,2013-01-04 16:54:00
11:54 AM,39.0,21.9,50,30.36,10.0,SW,12.7,19.6,N/A,,Clear,220,2013-01-04 17:54:00
12:54 PM,39.9,23.0,51,30.32,10.0,WSW,12.7,19.6,N/A,,Clear,240,2013-01-04 18:54:00
1:54 PM,42.1,24.1,49,30.31,10.0,SW,6.9,17.3,N/A,,Clear,230,2013-01-04 19:54:00
2:54 PM,43.0,24.1,47,30.30,10.0,SW,9.2,-,N/A,,Clear,220,2013-01-04 20:54:00
3:54 PM,42.1,25.0,51,30.30,10.0,SW,6.9,-,N/A,,Clear,220,2013-01-04 21:54:00
4:54 PM,39.0,25.0,57,30.29,10.0,SSW,8.1,-,N/A,,Clear,210,2013-01-04 22:54:00
5:54 PM,37.9,25.0,60,30.29,10.0,SSW,4.6,-,N/A,,Clear,200,2013-01-04 23:54:00
6:54 PM,36.0,25.0,64,30.29,10.0,SSW,4.6,-,N/A,,Clear,200,2013-01-05 00:54:00
7:54 PM,34.0,25.0,70,30.28,10.0,SSW,5.8,-,N/A,,Clear,200,2013-01-05 01:54:00
8:54 PM,36.0,25.0,64,30.27,10.0,SSW,4.6,-,N/A,,Clear,210,2013-01-05 02:54:00
9:54 PM,36.0,24.1,62,30.26,10.0,Calm,Calm,-,N/A,,Clear,0,2013-01-05 03:54:00
10:54 PM,33.1,23.0,66,30.26,10.0,SSW,8.1,-,N/A,,Clear,210,2013-01-05 04:54:00
11:54 PM,37.9,23.0,55,30.25,10.0,SW,11.5,-,N/A,,Clear,220,2013-01-05 05:54:00